CZ-6A DEB, 60682

Orbit data source: Space-Track

CZ-6A DEB, 60682 is space debris in LEO originally from a launch on Tue, 06 Aug 2024 UTC launched from the Taiyaun Space Center, China (TSC). Debris objects in space refer to the collection of defunct objects orbiting the Earth. Examples of debris include non-operational satellites, rocket bodies, and fragments generated from explosions, collisions, or faulty payload assembly.

Loading next visibility...
Identifier
60682, 2024-140CK
Orbit
LEO
Country
Flag of CNCN / PRC
Related business
Manufacturer
SAST
Mission
Spacecraft
Bus & Motor
Unknown
Mass
Unknown
Launch date (UTC)
2024-08-06 (2 years ago)
Launch vehicle
Unknown
Launch site
Taiyaun Space Center, China (TSC)
Object type
Payload
Rocket body
Debris
Shape & HBR
Unknown shape, 0.1 m
Radar Cross Section
Medium (>0.1 m² and <1 m²)

Expand to show TLE details & history
Last TLE update: 14 hours ago

TLE from 14 hours ago
0 CZ-6A DEB
1 60682U 24140CK  26171.28403997  .00000439  00000-0  18175-3 0  9993
2 60682  89.0065 274.2048 0028259 180.4708 179.6463 14.24728676 96809
Epoch: 2026-06-20T06:49Z
TLE epoch observation values (Epoch: 2026-06-20T06:49:01.053Z)
Latitude
-0.00003°
Longitude
-96.55046°
Altitude
832.78 km
Speed
7.426 km/s
True Right ascension
18h 16m 49s
True Declination
0° 00' 00"
Sunlit
Object was in full shadow at epoch
Visualization orbit readout
Latitude
Unknown
Longitude
Unknown
Altitude
Unknown
Speed
Unknown
Apparent Right ascension
Unknown
Apparent Declination
Unknown
Sunlit
N/A
Visualization observer readout
Local Sidereal Time
07:18:35
Azimuth
Unknown
Elevation
Unknown
Doppler factor
Unknown
Orbital elements
Apogee altitude
826.652 km
Perigee altitude
786.047 km
Semi-major axis
7,184.486 km
Eccentricity
0.00283
Inclination
89.0065°
RAAN
274.2048°
Arg. of periapsis
180.4708°
True anomaly
179.64829°
Mean anomaly
179.6463°
Eccentric anomaly
179.6473°
Mean motion
3.5641 °/min
Orbital period
101.01 mins
BSTAR
0.00018175
Loading maneuver chart data...
Computing Atmospheric mass density...
Loading historical data...
Loading historical data...
Loading historical data...
Loading historical data...
Loading historical data...
Loading historical data...
Loading historical data...

Documentation

Showing up to 5 results
|